Regional Weather Roundup
Issued by NWS

Home | Current Version | Previous Version | Graphics & Text | Print | Product List | Glossary On
Versions: 1 2 3 4 5 6 7 8 9 10 11 12 13 14 15 16 17 18 19 20 21 22 23 24 25 26 27 28 29 30 31 32 33 34 35 36 37 38 39 40 41 42 43 44 45 46 47 48 49 50
000
ASUS45 KSLC 080710
RWRUT

UTAH REGIONAL WEATHER ROUNDUP
NATIONAL WEATHER SERVICE SALT LAKE CITY UT
1200 AM MST MON FEB 08 2016

UTZ001>011-023>025-080800-

NORTHERN UTAH

CITY           SKY/WX    TMP DP  RH WIND       PRES   REMARKS
BRIGHAM CITY     N/A     15  12  87 CALM      30.68S VSB 1/4
HILL AFB       PTCLDY    26  20  76 E8        30.65R WCI  18
LOGAN          FOG        8   5  87 CALM      30.69R VSB 1/2
OGDEN          PTCLDY    26  21  81 S5        30.66R WCI  20
PROVO AIRPORT  PTCLDY    18  14  86 CALM      30.68R
SALT LAKE CITY PTCLDY    28  25  88 S5        30.67R WCI  23
VERNAL         CLOUDY    11   7  84 W3        30.57R FOG
WENDOVER       PTCLDY    27  19  74 CALM      30.67S
HEBER CITY     PTCLDY     9   5  85 SE3       30.63R FOG
WEST JORDAN    CLEAR     25  19  80 SW3       30.67R

$$

UTZ012>022-026-027-080800-

SOUTHERN/CENTRAL UTAH

CITY           SKY/WX    TMP DP  RH WIND       PRES   REMARKS
BLANDING       CLEAR     26  14  60 NW5       30.52S WCI  20
BRYCE CANYON   PTCLDY    19   9  65 W12       30.57R WCI   7
CEDAR CITY     PTCLDY    17  13  84 CALM      30.58R
DELTA            N/A      7   4  90 CALM      30.66S VSB<1/4
HANKSVILLE     MOCLDY    12  10  92 CALM      30.60R
MILFORD        MOCLDY    10 N/A N/A N9        30.62S WCI  -3
MOAB/CYNLANDS  MOCLDY    14  12  92 CALM      30.55S
PRICE          CLEAR     19  12  74 NE6       30.50S WCI  11
ST GEORGE      MOSUNNY   43  21  42 S7        30.51S
KANAB          CLEAR     32  27  80 CALM      30.53S

$$

REGIONAL REPORTS     COLORADO/ARIZONA

CITY           SKY/WX    TMP DP  RH WIND       PRES   REMARKS
CRAIG, CO      CLOUDY    -1  -5  82 W3        30.54F
GRAND JUNCTION CLOUDY    16  13  88 E3        30.55R
RIFLE          CLOUDY    13   8  81 CALM      30.56R
MONTROSE       CLOUDY    17  11  77 SE6       30.56R WCI   9
CORTEZ         CLOUDY    21  15  78 NE12      30.42S WCI   9
PAGE, AZ       CLEAR     32  23  69 SE6       30.51S WCI  26
GRAND CANYON   CLEAR     38  15  39 E15G24    30.48S WCI  29
KINGMAN        CLEAR     45  22  40 N6        30.38R
FLAGSTAFF      CLEAR     37  14  38 E17       30.44S WCI  27

$$

REGIONAL REPORTS    NEVADA/IDAHO/WYOMING

CITY           SKY/WX    TMP DP  RH WIND       PRES   REMARKS
LAS VEGAS, NV  CLEAR     53  24  32 E7        30.38R
ELY            PTCLDY    12   7  80 S15       30.63R WCI  -4
ELKO           MOCLDY    14  10  84 NE5       30.66S WCI   6
POCATELLO, ID  FOG       23  22  96 N3        30.68R VSB 1/4
BURLEY         FOG       24  24 100 NE7       30.65R VSB 1/2 WCI  16
EVANSTON, WY   CLOUDY    21  13  71 W10       30.59R WCI  10
ROCK SPRINGS   CLOUDY    27  17  66 W24       30.49R WCI  12

$$



USA.gov is the U.S. government's official web portal to all federal, state and local government web resources and services.